[[{"header":{"parameterUnit":"m.s-1","parameterCategory":1,"la1":30.2991,"la2":30.254,"lo1":-89.0895,"lo2":-89.0444,"dy":0.0017,"dx":0.0017,"nx":28,"ny":28,"refTime":"2024-10-17T03:00:00:Z","depth":0,"parameterNumber":2,"parameterNumberName":"U-component_of_WINDS"},"data":[0,0,0,0,0,0,0,0,0,0,0,0,0,0,0,0,0,0,0,0,0,0,0,0,0,0,0,0,0,0,0,0,0,0,0,0,0,0,0,0,0,0,0,0,0,0,0,0,0,0,0,0,0,0,0,0,0,0,-3.9189,-3.919,0,-3.925,-3.925,-3.9251,-3.9148,-3.9144,-3.9141,-3.9137,-3.9197,-3.9202,-3.9206,0,0,0,0,0,0,0,0,0,0,0,0,0,-3.898,-3.8984,-3.9189,-3.919,-3.919,-3.925,-3.925,-3.9251,-3.9148,-3.9144,-3.914,-3.9136,-3.9195,-3.9201,-3.9207,0,0,0,0,0,0,0,0,0,0,0,0,0,-3.9058,-3.8985,-3.9189,-3.9146,-3.9143,-3.9249,-3.925,-3.9251,-3.9149,-3.9144,-3.9139,-3.9134,-3.9193,-3.92,-3.9208,-3.9357,0,0,-3.923,-3.9233,0,0,0,0,0,0,0,0,-3.9054,-3.9066,-3.9152,-3.9149,-3.9146,-3.9186,-3.9198,-3.9287,-3.9151,-3.9147,-3.9137,-3.9131,-3.9197,-3.9204,-3.9227,-3.936,-3.9363,-3.923,-3.9235,-3.9238,-3.924,0,0,0,0,0,0,0,-3.9049,-3.9063,-3.9213,-3.9153,-3.915,-3.9123,-3.9128,-3.9215,-3.9201,-3.9147,-3.9139,-3.9148,-3.9195,-3.922,-3.9227,-3.9363,-3.923,-3.9237,-3.9241,-3.9244,-3.9619,-3.9624,0,0,0,0,0,0,-3.9049,-3.9059,-3.9211,-3.9215,-3.9086,-3.9131,-3.9137,-3.9178,-3.9199,-3.9198,-3.9153,-3.9143,-3.921,-3.9219,-3.9229,-3.9403,-3.9238,-3.9245,-3.9249,-3.9613,-3.962,-3.9626,0,0,0,0,0,0,-3.9045,-3.9064,-3.9208,-3.9135,-3.9151,-3.914,-3.9187,-3.9182,-3.9207,-3.9204,-3.92,-3.9181,-3.9206,-3.9219,-3.9326,-3.9403,-3.9248,-3.9255,-3.9607,-3.9616,-3.9623,-3.9753,0,0,0,0,0,0,-3.9039,-3.9063,-3.9121,-3.9137,-3.9156,-3.9306,-3.9192,-3.9187,-3.922,-3.9209,-3.923,-3.9228,-3.9203,-3.9315,-3.9333,-3.941,-3.926,-3.96,-3.9611,-3.9621,-3.9742,-3.9765,-3.9785,0,0,0,0,0,-3.9032,-3.9155,-3.9124,-3.9143,-3.9228,-3.931,-3.9321,-3.929,-3.9227,-3.9284,-3.9282,-3.9228,-3.9393,-3.9327,-3.9346,-3.9427,-3.9595,-3.9608,-3.962,-3.9732,-3.976,-3.9784,0,0,0,0,0,0,-3.9147,-3.9156,-3.9122,-3.9254,-3.9282,-3.9293,-3.9364,-3.9322,-3.9368,-3.9354,-3.9314,-3.9319,-3.9434,-3.9441,-3.9368,-3.9571,-3.9483,-3.95,-3.9562,-3.9589,-3.961,-3.9604,-3.9266,0,0,0,0,0,-3.9188,-3.9255,-3.9259,-3.9375,-3.9391,-3.9376,-3.941,-3.9384,-3.9411,-3.9422,-3.9428,-3.9455,-3.9512,-3.9551,-3.9605,-3.9743,-3.9744,-3.9808,-3.983,-3.9847,-3.9861,-3.9932,-3.9959,-3.9668,-3.9668,-3.9667,0,0,-3.9273,-3.9286,-3.9331,-3.9398,-3.9417,-3.9486,-3.9386,-3.9464,-3.9513,-3.9434,-3.9534,-3.9539,-3.9567,-3.969,-3.9744,-3.9699,-3.9943,-3.9863,-3.9878,-3.9882,-3.9948,-3.9975,-4.0,-3.9676,-3.9675,-3.9673,0,0,-3.9461,-3.948,-3.9576,-3.9597,-3.9627,-3.9616,-3.9639,-3.9656,-3.9656,-3.9757,-3.9698,-3.9756,-3.9857,-3.9878,-3.9903,-4.0098,-4.0049,-4.0117,-4.0228,-4.0297,-4.032,-4.034,-4.0407,-4.0431,-4.0132,-4.0132,-4.0132,0,-3.9562,-3.9664,-3.9631,-3.9713,-3.9743,-3.9675,-3.9771,-3.9793,-3.9838,-3.986,-3.981,-3.9934,-3.9948,-4.0073,-4.012,-4.0144,-4.0167,-4.0113,-4.032,-4.034,-4.0358,-4.0421,-4.0446,-4.014,-4.0139,-4.0138,-4.0137,0,-3.9785,-3.9857,-3.9932,-3.9977,-4.0016,-4.0105,-4.0083,-4.0127,-4.0097,-4.0091,-4.0192,-4.0207,-4.0261,-4.0289,-4.0262,-4.041,-4.0381,-4.0327,-4.0236,-4.0394,-4.0452,-4.0476,-4.0151,-4.0148,-4.0146,-4.0144,0,0,-4.0047,-4.0072,-4.01,-4.0118,-4.0146,-4.02,-4.0285,-4.0338,-4.0374,-4.0408,-4.0476,-4.0563,-4.0512,-4.0539,-4.0513,-4.0575,-4.0725,-4.0512,-4.0512,-4.0548,-4.0885,-4.0923,-4.0952,-4.0694,-4.0698,-4.0702,-4.0881,0,-4.0231,-4.0378,-4.035,-4.0492,-4.0556,-4.0492,-4.0565,-4.0589,-4.0585,-4.0638,-4.0633,-4.0694,-4.0624,-4.064,-4.0698,-4.0694,-4.0791,-4.0681,-4.0753,-4.0756,-4.0745,-4.0983,-4.1024,-4.1193,-4.0904,-4.0908,-4.0911,0,-4.0466,-4.0508,-4.0657,-4.0672,-4.0698,-4.0764,-4.0809,-4.0861,-4.0886,-4.0879,-4.091,-4.0872,-4.0953,-4.0865,-4.0975,-4.0901,-4.0929,-4.0932,-4.0938,-4.0941,-4.0841,-4.0989,-4.1246,-4.1271,-4.0947,-4.0944,-4.0942,0,-4.0637,-4.0732,-4.0832,-4.085,-4.0871,-4.0919,-4.093,-4.095,-4.0983,-4.1022,-4.1042,-4.1091,-4.1117,-4.1154,-4.113,-4.1068,-4.1244,-4.1153,-4.1237,-4.1238,-4.1274,-4.1272,-4.1537,-4.1299,-4.1299,-4.1298,-4.1298,0,-4.0844,-4.0937,-4.0908,-4.097,-4.1071,-4.1038,-4.1138,-4.1141,-4.1159,-4.1219,-4.1167,-4.1224,-4.119,-4.1243,-4.1225,-4.1317,-4.133,-4.1324,-4.1318,-4.1327,-4.1327,-4.1343,-4.1329,-4.1305,-4.1303,-4.1302,-4.1301,0,-4.1052,-4.1037,-4.1141,-4.1153,-4.1158,-4.1231,-4.124,-4.1296,-4.1288,-4.1364,-4.138,-4.1367,-4.1427,-4.1407,-4.1472,-4.1459,-4.1576,-4.1556,-4.1568,-4.1561,-4.1645,-4.1636,-4.1926,-4.1961,-4.1704,-4.1706,-4.1708,0,-4.1183,-4.1253,-4.1271,-4.1308,-4.1322,-4.1382,-4.1415,-4.1385,-4.1421,-4.1454,-4.1506,-4.1561,-4.1604,-4.1702,-4.1698,-4.1746,-4.1725,-4.1823,-4.1732,-4.1738,-4.1722,-4.1717,-4.1722,-4.184,-4.1843,-4.1846,-4.1848,0,-4.1417,-4.1406,-4.1456,-4.1503,-4.1544,-4.158,-4.1611,-4.1644,-4.1615,-4.1658,-4.1719,-4.1752,-4.1818,-4.1872,-4.1916,-4.1925,-4.1881,-4.1877,-4.1898,-4.1907,-4.1909,-4.1905,-4.1614,-4.187,-4.1868,-4.1866,-4.1865,-4.1864,-4.1588,-4.1645,-4.1667,-4.1724,-4.1744,-4.1774,-4.1826,-4.1825,-4.1876,-4.1926,-4.1906,-4.1975,-4.1996,-4.205,-4.2066,-4.2118,-4.208,-4.2112,-4.2119,-4.2127,-4.2135,-4.1904,-4.2127,-4.2126,-4.2125,-4.2125,-4.2124,0,-4.1816,-4.1826,-4.1879,-4.1924,-4.1968,-4.1925,-4.1956,-4.1995,-4.2057,-4.2081,-4.2124,-4.2193,-4.2245,-4.2246,-4.2294,-4.2336,-4.2317,-4.2349,-4.2344,-4.2346,-4.2169,-4.2144,-4.2364,-4.2363,-4.2363,-4.2363,-4.2363,-4.2363,-4.1939,-4.2033,-4.2025,-4.2127,-4.2137,-4.2205,-4.2226,-4.2252,-4.2271,-4.235,-4.2393,-4.2394,-4.2407,-4.2456,-4.2502,-4.25,-4.2519,-4.2558,-4.2549,-4.2383,-4.2359,-4.2336,-4.2312,-4.2564,-4.2564,-4.2721,-4.2723,-4.2724]},{"header":{"parameterUnit":"m.s-1","parameterCategory":1,"la1":30.2991,"la2":30.254,"lo1":-89.0895,"lo2":-89.0444,"dy":0.0017,"dx":0.0017,"nx":28,"ny":28,"refTime":"2024-10-17T03:00:00:Z","depth":0,"parameterNumber":3,"parameterNumberName":"V-component_of_WINDS"},"data":[0,0,0,0,0,0,0,0,0,0,0,0,0,0,0,0,0,0,0,0,0,0,0,0,0,0,0,0,0,0,0,0,0,0,0,0,0,0,0,0,0,0,0,0,0,0,0,0,0,0,0,0,0,0,0,0,0,0,-2.6144,-2.6144,0,-2.6199,-2.6199,-2.62,-2.6184,-2.6183,-2.6182,-2.6181,-2.6235,-2.6237,-2.624,0,0,0,0,0,0,0,0,0,0,0,0,0,-2.6022,-2.6024,-2.6144,-2.6144,-2.6145,-2.6198,-2.6199,-2.62,-2.6184,-2.6183,-2.6181,-2.618,-2.6234,-2.6237,-2.624,0,0,0,0,0,0,0,0,0,0,0,0,0,-2.6075,-2.6025,-2.6143,-2.6144,-2.6144,-2.6198,-2.6199,-2.62,-2.6184,-2.6183,-2.6181,-2.6179,-2.6233,-2.6237,-2.624,-2.6297,0,0,-2.6252,-2.6253,0,0,0,0,0,0,0,0,-2.6072,-2.608,-2.6143,-2.6144,-2.6144,-2.6183,-2.6176,-2.6233,-2.6185,-2.6169,-2.6181,-2.6179,-2.6219,-2.6224,-2.6238,-2.63,-2.6302,-2.6252,-2.6254,-2.6256,-2.6257,0,0,0,0,0,0,0,-2.6069,-2.6078,-2.6165,-2.6144,-2.6145,-2.614,-2.6146,-2.6187,-2.6203,-2.617,-2.6169,-2.6176,-2.6219,-2.6234,-2.6239,-2.6303,-2.6252,-2.6255,-2.6258,-2.6259,-2.6412,-2.6414,0,0,0,0,0,0,-2.6065,-2.6075,-2.6164,-2.6167,-2.6104,-2.6143,-2.615,-2.6172,-2.6202,-2.6205,-2.6178,-2.6175,-2.6228,-2.6234,-2.6241,-2.6308,-2.6256,-2.626,-2.6262,-2.6411,-2.6413,-2.6415,0,0,0,0,0,0,-2.6062,-2.6073,-2.6161,-2.612,-2.6131,-2.6147,-2.6172,-2.6174,-2.6189,-2.6208,-2.621,-2.619,-2.6227,-2.6235,-2.6283,-2.6309,-2.6261,-2.6265,-2.6408,-2.6411,-2.6414,-2.6443,0,0,0,0,0,0,-2.6059,-2.6072,-2.6095,-2.6121,-2.6134,-2.6204,-2.6174,-2.6176,-2.6196,-2.6193,-2.622,-2.6223,-2.6227,-2.6277,-2.6287,-2.6313,-2.6268,-2.6406,-2.641,-2.6413,-2.644,-2.6446,-2.6452,0,0,0,0,0,-2.6055,-2.6101,-2.6096,-2.6107,-2.6162,-2.6205,-2.6212,-2.6216,-2.6198,-2.622,-2.6232,-2.6222,-2.6305,-2.6282,-2.6293,-2.6321,-2.6404,-2.6409,-2.6413,-2.6437,-2.6445,-2.6452,0,0,0,0,0,0,-2.6076,-2.6104,-2.6099,-2.6155,-2.6178,-2.6203,-2.6231,-2.6225,-2.6253,-2.6249,-2.6252,-2.6258,-2.6307,-2.6319,-2.6293,-2.6377,-2.6352,-2.6358,-2.6367,-2.6375,-2.6381,-2.6376,-2.6271,0,0,0,0,0,-2.6088,-2.6122,-2.6144,-2.6191,-2.6203,-2.6215,-2.6234,-2.6235,-2.6258,-2.6267,-2.6283,-2.6305,-2.6336,-2.6356,-2.6386,-2.6442,-2.6446,-2.6466,-2.6472,-2.6477,-2.6482,-2.6511,-2.6519,-2.6428,-2.6428,-2.6428,0,0,-2.6112,-2.6131,-2.6152,-2.6196,-2.6214,-2.6247,-2.6223,-2.626,-2.6284,-2.6273,-2.6318,-2.633,-2.6355,-2.6407,-2.643,-2.6419,-2.6509,-2.6483,-2.6486,-2.6489,-2.6516,-2.6525,-2.6532,-2.6431,-2.6431,-2.643,0,0,-2.6172,-2.6191,-2.6231,-2.6249,-2.6277,-2.6284,-2.6294,-2.6319,-2.6327,-2.6373,-2.6365,-2.6393,-2.6447,-2.6465,-2.6481,-2.6547,-2.6538,-2.6556,-2.6588,-2.6616,-2.6623,-2.6629,-2.6651,-2.6659,-2.6561,-2.6561,-2.6561,0,-2.6198,-2.6249,-2.6253,-2.629,-2.6309,-2.63,-2.6341,-2.6358,-2.6393,-2.6406,-2.6392,-2.6459,-2.6475,-2.653,-2.6546,-2.656,-2.6569,-2.6553,-2.6622,-2.6628,-2.6634,-2.6655,-2.6663,-2.6563,-2.6563,-2.6563,-2.6563,0,-2.6278,-2.6313,-2.6343,-2.6377,-2.6399,-2.6438,-2.6447,-2.6469,-2.6468,-2.6476,-2.6522,-2.6542,-2.6574,-2.6588,-2.6587,-2.6642,-2.6633,-2.6621,-2.6596,-2.6645,-2.6664,-2.6672,-2.6566,-2.6565,-2.6565,-2.6564,0,0,-2.6353,-2.6389,-2.64,-2.6414,-2.6444,-2.647,-2.6508,-2.654,-2.6558,-2.6583,-2.6613,-2.6659,-2.6647,-2.6665,-2.6666,-2.6691,-2.6739,-2.6675,-2.6676,-2.6685,-2.6799,-2.6807,-2.6817,-2.6734,-2.6736,-2.6737,-2.6797,0,-2.6414,-2.6481,-2.6486,-2.6546,-2.6577,-2.6569,-2.6602,-2.6623,-2.6632,-2.6659,-2.6668,-2.67,-2.6683,-2.6694,-2.6718,-2.6728,-2.6762,-2.6724,-2.6761,-2.6763,-2.6754,-2.6827,-2.6836,-2.6891,-2.6804,-2.6806,-2.6807,0,-2.6495,-2.6522,-2.6585,-2.6608,-2.6622,-2.6651,-2.668,-2.6707,-2.673,-2.6734,-2.6754,-2.6752,-2.6789,-2.6764,-2.6814,-2.6788,-2.6803,-2.6811,-2.6813,-2.6816,-2.6787,-2.683,-2.6909,-2.6917,-2.6819,-2.6818,-2.6817,0,-2.6541,-2.6593,-2.6637,-2.6651,-2.6679,-2.67,-2.6713,-2.6734,-2.6753,-2.6778,-2.679,-2.6819,-2.6835,-2.6857,-2.6862,-2.6843,-2.6912,-2.6887,-2.6915,-2.6915,-2.6929,-2.6928,-2.701,-2.6941,-2.6941,-2.6941,-2.6941,0,-2.6608,-2.6647,-2.6658,-2.6685,-2.6728,-2.6732,-2.6773,-2.6785,-2.6804,-2.6832,-2.6827,-2.6853,-2.6859,-2.6886,-2.689,-2.693,-2.6937,-2.6941,-2.6941,-2.6941,-2.694,-2.695,-2.6946,-2.6943,-2.6943,-2.6942,-2.6942,0,-2.6666,-2.6676,-2.6723,-2.6747,-2.6753,-2.6784,-2.6803,-2.6828,-2.6836,-2.6872,-2.688,-2.6893,-2.6925,-2.6932,-2.697,-2.6972,-2.7019,-2.7017,-2.7012,-2.7011,-2.7038,-2.7035,-2.7128,-2.714,-2.7065,-2.7066,-2.7067,0,-2.6708,-2.6737,-2.6764,-2.6782,-2.6796,-2.6827,-2.6846,-2.6851,-2.687,-2.6898,-2.692,-2.6951,-2.6976,-2.7026,-2.7038,-2.7066,-2.7063,-2.7094,-2.7068,-2.7065,-2.7062,-2.7059,-2.7062,-2.7099,-2.71,-2.71,-2.7101,0,-2.678,-2.6783,-2.6811,-2.684,-2.6863,-2.6887,-2.6909,-2.6924,-2.6932,-2.6954,-2.6987,-2.7006,-2.7044,-2.7074,-2.7103,-2.7115,-2.7109,-2.7109,-2.7117,-2.7116,-2.7111,-2.7112,-2.7024,-2.7107,-2.7106,-2.7106,-2.7105,-2.7105,-2.683,-2.6855,-2.6877,-2.6908,-2.6925,-2.6946,-2.697,-2.6982,-2.7009,-2.7041,-2.7042,-2.7077,-2.7097,-2.7135,-2.7149,-2.7175,-2.7165,-2.7177,-2.718,-2.7182,-2.7184,-2.7108,-2.718,-2.718,-2.718,-2.718,-2.718,0,-2.69,-2.6914,-2.6942,-2.6974,-2.6997,-2.6991,-2.7015,-2.7035,-2.7065,-2.7086,-2.711,-2.7147,-2.7176,-2.719,-2.7219,-2.7237,-2.7235,-2.7244,-2.7242,-2.7245,-2.7192,-2.7181,-2.7246,-2.7245,-2.7245,-2.7245,-2.7245,-2.7245,-2.6939,-2.6981,-2.6987,-2.7036,-2.705,-2.7084,-2.7098,-2.7116,-2.7132,-2.7173,-2.7198,-2.7207,-2.7224,-2.7254,-2.728,-2.7283,-2.7293,-2.7304,-2.7306,-2.7255,-2.7249,-2.7242,-2.7233,-2.7307,-2.7307,-2.7357,-2.7357,-2.7357]}]]